| time (UTC) | temp C | wind direction | speed KPH | gust KPH | rain 1hr cm | rain 24hr cm | rain mn cm | humidity % | barometer mb |
| 20260906135006 | 26 | 297 | 0.0 | 3.2 | 0.00 | 0.05 | 0.05 | 80 | 1013.6 |
| 20260906134512 | 26 | 297 | 0.0 | 3.2 | 0.00 | 0.05 | 0.05 | 86 | 1013.7 |
| 20260906134010 | 26 | 278 | 1.6 | 3.2 | 0.00 | 0.05 | 0.05 | 85 | 1013.5 |
| 20260906133510 | 25 | 247 | 0.0 | 3.2 | 0.00 | 0.05 | 0.05 | 87 | 1013.4 |
| 20260906133008 | 25 | 246 | 0.0 | 3.2 | 0.00 | 0.05 | 0.05 | 87 | 1013.3 |
| 20260906132514 | 25 | 133 | 0.0 | 3.2 | 0.00 | 0.05 | 0.05 | 88 | 1013.5 |
| 20260906132009 | 25 | 217 | 0.0 | 3.2 | 0.00 | 0.05 | 0.05 | 88 | 1013.4 |
| 20260906131507 | 25 | 287 | 1.6 | 3.2 | 0.00 | 0.05 | 0.05 | 91 | 1013.5 |
| 20260906131014 | 24 | 242 | 0.0 | 3.2 | 0.00 | 0.05 | 0.05 | 92 | 1013.5 |
| 20260906130505 | 24 | 132 | 0.0 | 3.2 | 0.00 | 0.05 | 0.05 | 93 | 1013.7 |
| 20260906130015 | 23 | 135 | 0.0 | 4.8 | 0.00 | 0.05 | 0.05 | 93 | 1013.6 |
| 20260906125507 | 23 | 203 | 1.6 | 4.8 | 0.00 | 0.05 | 0.05 | 93 | 1013.5 |
| 20260906125006 | 23 | 45 | 0.0 | 3.2 | 0.00 | 0.05 | 0.05 | 92 | 1013.6 |
| 20260906124518 | 23 | 44 | 1.6 | 3.2 | 0.00 | 0.05 | 0.05 | 92 | 1013.6 |
| 20260906124011 | 23 | 44 | 0.0 | 0.0 | 0.00 | 0.05 | 0.05 | 93 | 1013.6 |
| 20260906123503 | 23 | 44 | 0.0 | 0.0 | 0.00 | 0.05 | 0.05 | 92 | 1013.6 |
| 20260906123033 | 22 | 44 | 0.0 | 0.0 | 0.00 | 0.05 | 0.05 | 92 | 1013.6 |
| 20260906122508 | 22 | 44 | 0.0 | 3.2 | 0.00 | 0.05 | 0.05 | 92 | 1013.6 |
| 20260906122014 | 22 | 44 | 0.0 | 3.2 | 0.00 | 0.05 | 0.05 | 92 | 1013.5 |
| 20260906121523 | 22 | 44 | 0.0 | 3.2 | 0.00 | 0.05 | 0.05 | 92 | 1013.4 |
| 20260906121008 | 22 | 44 | 1.6 | 3.2 | 0.00 | 0.05 | 0.05 | 92 | 1013.5 |
| 20260906120516 | 22 | 44 | 1.6 | 3.2 | 0.00 | 0.05 | 0.05 | 92 | 1013.4 |
| 20260906120019 | 22 | 44 | 0.0 | 0.0 | 0.00 | 0.05 | 0.05 | 91 | 1013.4 |
| 20260906115504 | 22 | 44 | 0.0 | 0.0 | 0.00 | 0.05 | 0.05 | 91 | 1013.4 |
| 20260906115006 | 23 | 44 | 0.0 | 0.0 | 0.00 | 0.05 | 0.05 | 91 | 1013.3 |
| 20260906114511 | 23 | 44 | 0.0 | 3.2 | 0.00 | 0.05 | 0.05 | 91 | 1013.3 |
| 20260906114011 | 23 | 44 | 0.0 | 3.2 | 0.00 | 0.05 | 0.05 | 91 | 1013.3 |
| 20260906113510 | 23 | 44 | 0.0 | 3.2 | 0.00 | 0.05 | 0.05 | 91 | 1013.4 |
| 20260906113018 | 23 | 44 | 0.0 | 3.2 | 0.00 | 0.05 | 0.05 | 92 | 1013.4 |
| 20260906112512 | 23 | 44 | 0.0 | 4.8 | 0.00 | 0.05 | 0.05 | 92 | 1013.5 |
| 20260906112015 | 23 | 44 | 1.6 | 4.8 | 0.00 | 0.05 | 0.05 | 92 | 1013.4 |
| 20260906111533 | 23 | 20 | 1.6 | 4.8 | 0.00 | 0.05 | 0.05 | 92 | 1013.4 |
| 20260906111015 | 23 | 20 | 1.6 | 4.8 | 0.00 | 0.05 | 0.05 | 92 | 1013.4 |
| 20260906110510 | 23 | 20 | 1.6 | 6.4 | 0.00 | 0.05 | 0.05 | 92 | 1013.5 |
| 20260906110032 | 23 | 309 | 3.2 | 8.0 | 0.00 | 0.05 | 0.05 | 92 | 1013.5 |
| 20260906105518 | 23 | 317 | 3.2 | 8.0 | 0.00 | 0.05 | 0.05 | 93 | 1013.5 |
| 20260906105008 | 22 | 333 | 3.2 | 6.4 | 0.00 | 0.05 | 0.05 | 93 | 1013.6 |
| 20260906104531 | 22 | 16 | 3.2 | 6.4 | 0.00 | 0.05 | 0.05 | 93 | 1013.5 |
| 20260906104013 | 22 | 18 | 1.6 | 4.8 | 0.00 | 0.05 | 0.05 | 92 | 1013.4 |
| 20260906103506 | 22 | 349 | 1.6 | 3.2 | 0.00 | 0.05 | 0.05 | 92 | 1013.2 |
| 20260906103004 | 22 | 296 | 1.6 | 3.2 | 0.00 | 0.05 | 0.05 | 92 | 1013.1 |
| 20260906102508 | 22 | 296 | 0.0 | 3.2 | 0.00 | 0.05 | 0.05 | 92 | 1013.0 |
| 20260906102002 | 22 | 296 | 0.0 | 3.2 | 0.00 | 0.05 | 0.05 | 92 | 1013.0 |
| 20260906101505 | 22 | 296 | 0.0 | 3.2 | 0.00 | 0.05 | 0.05 | 91 | 1013.0 |
| 20260906101002 | 22 | 296 | 0.0 | 3.2 | 0.03 | 0.05 | 0.05 | 91 | 1013.0 |
| 20260906100504 | 22 | 296 | 0.0 | 3.2 | 0.03 | 0.05 | 0.05 | 92 | 1013.1 |
| 20260906100004 | 22 | 296 | 1.6 | 6.4 | 0.03 | 0.05 | 0.05 | 92 | 1013.0 |
| 20260906095503 | 22 | 283 | 3.2 | 6.4 | 0.03 | 0.05 | 0.05 | 92 | 1012.9 |
| 20260906095003 | 22 | 9 | 3.2 | 4.8 | 0.03 | 0.05 | 0.05 | 92 | 1012.8 |
| 20260906094517 | 22 | 9 | 3.2 | 4.8 | 0.03 | 0.05 | 0.05 | 92 | 1012.8 |
| 20260906094004 | 22 | 9 | 3.2 | 4.8 | 0.03 | 0.05 | 0.05 | 92 | 1012.7 |
| 20260906093503 | 22 | 9 | 3.2 | 4.8 | 0.03 | 0.05 | 0.05 | 92 | 1012.7 |
| 20260906093012 | 22 | 9 | 3.2 | 4.8 | 0.03 | 0.05 | 0.05 | 92 | 1012.8 |
| 20260906092506 | 22 | 9 | 3.2 | 3.2 | 0.03 | 0.05 | 0.05 | 92 | 1012.8 |
| 20260906092003 | 22 | 9 | 1.6 | 3.2 | 0.03 | 0.05 | 0.05 | 92 | 1012.8 |
| 20260906091524 | 22 | 9 | 0.0 | 3.2 | 0.03 | 0.05 | 0.05 | 92 | 1012.9 |
| 20260906091004 | 22 | 9 | 1.6 | 3.2 | 0.00 | 0.03 | 0.03 | 92 | 1012.8 |
| 20260906090509 | 22 | 9 | 0.0 | 3.2 | 0.00 | 0.03 | 0.03 | 91 | 1012.9 |
| 20260906090005 | 22 | 9 | 0.0 | 3.2 | 0.00 | 0.03 | 0.03 | 92 | 1013.0 |
| 20260906085504 | 22 | 9 | 0.0 | 3.2 | 0.00 | 0.03 | 0.03 | 92 | 1013.0 |
| 20260906085005 | 22 | 9 | 1.6 | 4.8 | 0.00 | 0.03 | 0.03 | 92 | 1013.1 |
| 20260906084516 | 22 | 9 | 1.6 | 4.8 | 0.00 | 0.03 | 0.03 | 92 | 1013.0 |
| 20260906084004 | 22 | 9 | 1.6 | 4.8 | 0.00 | 0.03 | 0.03 | 92 | 1012.9 |
| 20260906083507 | 22 | 329 | 0.0 | 0.0 | 0.00 | 0.03 | 0.03 | 92 | 1012.8 |
| 20260906083014 | 22 | 329 | 0.0 | 0.0 | 0.00 | 0.03 | 0.03 | 92 | 1013.0 |
| 20260906082509 | 22 | 329 | 0.0 | 0.0 | 0.00 | 0.03 | 0.03 | 92 | 1012.9 |
| 20260906082008 | 22 | 329 | 0.0 | 0.0 | 0.00 | 0.03 | 0.03 | 92 | 1012.9 |
| 20260906081515 | 22 | 284 | 0.0 | 0.0 | 0.00 | 0.03 | 0.03 | 92 | 1012.8 |
| 20260906081009 | 22 | 233 | 0.0 | 3.2 | 0.00 | 0.03 | 0.03 | 92 | 1012.8 |
| 20260906080506 | 22 | 233 | 0.0 | 3.2 | 0.00 | 0.03 | 0.03 | 92 | 1012.7 |
| 20260906080006 | 23 | 233 | 1.6 | 3.2 | 0.00 | 0.03 | 0.03 | 92 | 1012.7 |
| 20260906075508 | 23 | 348 | 0.0 | 0.0 | 0.00 | 0.03 | 0.03 | 91 | 1012.8 |
| 20260906075004 | 23 | 348 | 0.0 | 3.2 | 0.00 | 0.03 | 0.03 | 91 | 1012.8 |
| 20260906074504 | 23 | 348 | 0.0 | 3.2 | 0.00 | 0.03 | 0.03 | 91 | 1012.8 |
| 20260906074004 | 23 | 348 | 0.0 | 3.2 | 0.00 | 0.03 | 0.03 | 91 | 1012.8 |
| 20260906073503 | 23 | 348 | 0.0 | 6.4 | 0.00 | 0.03 | 0.03 | 92 | 1012.8 |
| 20260906073008 | 23 | 348 | 3.2 | 6.4 | 0.00 | 0.03 | 0.03 | 92 | 1012.8 |
| 20260906072504 | 23 | 360 | 3.2 | 4.8 | 0.00 | 0.03 | 0.03 | 92 | 1012.8 |
| 20260906072005 | 23 | 33 | 1.6 | 3.2 | 0.00 | 0.03 | 0.03 | 91 | 1012.7 |
| 20260906071513 | 23 | 34 | 3.2 | 3.2 | 0.00 | 0.03 | 0.03 | 91 | 1012.7 |
| 20260906071006 | 23 | 213 | 0.0 | 3.2 | 0.00 | 0.03 | 0.03 | 92 | 1012.5 |
| 20260906070509 | 23 | 121 | 0.0 | 3.2 | 0.00 | 0.03 | 0.03 | 91 | 1012.5 |
| 20260906070014 | 23 | 113 | 3.2 | 3.2 | 0.03 | 0.03 | 0.03 | 90 | 1012.5 |
| 20260906065503 | 23 | 134 | 0.0 | 3.2 | 0.03 | 0.03 | 0.03 | 90 | 1012.4 |
| 20260906065015 | 23 | 133 | 0.0 | 3.2 | 0.03 | 0.03 | 0.03 | 91 | 1012.4 |
| 20260906064510 | 23 | 133 | 0.0 | 3.2 | 0.03 | 0.03 | 0.03 | 91 | 1012.4 |
| 20260906064012 | 23 | 135 | 0.0 | 3.2 | 0.03 | 0.03 | 0.03 | 91 | 1012.4 |
| 20260906063504 | 23 | 15 | 0.0 | 8.0 | 0.03 | 0.03 | 0.03 | 91 | 1012.4 |
| 20260906063009 | 23 | 360 | 3.2 | 8.0 | 0.03 | 0.03 | 0.03 | 91 | 1012.4 |
| 20260906062504 | 23 | 11 | 4.8 | 8.0 | 0.03 | 0.03 | 0.03 | 91 | 1012.6 |
| 20260906062005 | 23 | 306 | 4.8 | 8.0 | 0.03 | 0.03 | 0.03 | 91 | 1012.7 |
| 20260906061508 | 23 | 263 | 4.8 | 8.0 | 0.03 | 0.03 | 0.03 | 91 | 1012.7 |
| 20260906061008 | 23 | 278 | 4.8 | 8.0 | 0.03 | 0.03 | 0.03 | 91 | 1013.0 |
| 20260906060508 | 23 | 225 | 4.8 | 8.0 | 0.03 | 0.03 | 0.03 | 91 | 1013.2 |
| 20260906060022 | 23 | 67 | 0.0 | 6.4 | 0.00 | 0.00 | 0.00 | 92 | 1013.5 |
| 20260906055512 | 23 | 67 | 3.2 | 6.4 | 0.00 | 0.00 | 0.00 | 92 | 1013.6 |
| 20260906055005 | 23 | 128 | 4.8 | 6.4 | 0.00 | 0.00 | 0.00 | 92 | 1013.7 |
| 20260906054527 | 23 | 90 | 1.6 | 4.8 | 0.00 | 0.00 | 0.00 | 91 | 1013.5 |
| 20260906054010 | 23 | 25 | 0.0 | 0.0 | 0.00 | 0.00 | 0.00 | 91 | 1013.4 |
| 20260906053504 | 23 | 25 | 0.0 | 0.0 | 0.00 | 0.00 | 0.00 | 91 | 1013.3 |
| 20260906053030 | 23 | 24 | 0.0 | 0.0 | 0.00 | 0.00 | 0.00 | 91 | 1013.3 |
| 20260906052508 | 23 | 307 | 0.0 | 0.0 | 0.00 | 0.00 | 0.00 | 91 | 1013.4 |
| 20260906052005 | 23 | 284 | 0.0 | 0.0 | 0.00 | 0.00 | 0.00 | 91 | 1013.5 |
| 20260906051510 | 23 | 284 | 0.0 | 0.0 | 0.00 | 0.00 | 0.00 | 90 | 1013.6 |
| 20260906051005 | 23 | 284 | 0.0 | 0.0 | 0.00 | 0.00 | 0.00 | 90 | 1013.4 |
| 20260906050506 | 23 | 284 | 0.0 | 0.0 | 0.00 | 0.00 | 0.00 | 91 | 1013.4 |
| 20260906050043 | 23 | 276 | 0.0 | 0.0 | 0.00 | 0.00 | 0.00 | 90 | 1013.3 |
| 20260906045504 | 23 | 203 | 0.0 | 0.0 | 0.00 | 0.00 | 0.00 | 90 | 1013.3 |
| 20260906045010 | 23 | 203 | 0.0 | 0.0 | 0.00 | 0.00 | 0.00 | 90 | 1013.3 |
| 20260906044514 | 23 | 203 | 0.0 | 0.0 | 0.00 | 0.00 | 0.00 | 90 | 1013.4 |
| 20260906044012 | 23 | 158 | 0.0 | 0.0 | 0.00 | 0.00 | 0.00 | 90 | 1013.4 |
| 20260906043512 | 23 | 158 | 0.0 | 0.0 | 0.00 | 0.00 | 0.00 | 90 | 1013.6 |
| 20260906043012 | 23 | 158 | 0.0 | 0.0 | 0.00 | 0.00 | 0.00 | 90 | 1013.6 |
| 20260906042515 | 23 | 294 | 0.0 | 0.0 | 0.00 | 0.00 | 0.00 | 89 | 1013.6 |
| 20260906042010 | 23 | 321 | 0.0 | 0.0 | 0.00 | 0.00 | 0.00 | 90 | 1013.5 |
| 20260906041510 | 23 | 320 | 0.0 | 0.0 | 0.00 | 0.00 | 0.00 | 89 | 1013.5 |
| 20260906041017 | 23 | 320 | 0.0 | 0.0 | 0.00 | 0.00 | 0.00 | 90 | 1013.5 |
| 20260906040503 | 23 | 322 | 0.0 | 0.0 | 0.00 | 0.00 | 0.00 | 90 | 1013.7 |
| 20260906040015 | 23 | 295 | 0.0 | 0.0 | 0.00 | 0.00 | 0.00 | 89 | 1013.7 |
| 20260906035508 | 23 | 294 | 0.0 | 0.0 | 0.00 | 0.00 | 0.00 | 89 | 1013.4 |
| 20260906035009 | 23 | 286 | 0.0 | 0.0 | 0.00 | 0.00 | 0.00 | 89 | 1013.5 |
| 20260906034515 | 23 | 270 | 0.0 | 0.0 | 0.00 | 0.00 | 0.00 | 90 | 1013.4 |
| 20260906034010 | 23 | 15 | 0.0 | 0.0 | 0.00 | 0.00 | 0.00 | 90 | 1013.5 |
| 20260906033506 | 23 | 15 | 0.0 | 0.0 | 0.00 | 0.00 | 0.00 | 90 | 1013.6 |
| 20260906033027 | 23 | 15 | 0.0 | 0.0 | 0.00 | 0.00 | 0.00 | 89 | 1013.6 |
| 20260906032507 | 23 | 63 | 0.0 | 0.0 | 0.00 | 0.00 | 0.00 | 89 | 1013.5 |
| 20260906032014 | 23 | 56 | 0.0 | 1.6 | 0.00 | 0.00 | 0.00 | 89 | 1013.5 |
| 20260906031527 | 23 | 49 | 0.0 | 3.2 | 0.00 | 0.00 | 0.00 | 88 | 1013.5 |
| 20260906031002 | 23 | 24 | 1.6 | 3.2 | 0.00 | 0.00 | 0.00 | 88 | 1013.6 |
| 20260906030507 | 23 | 17 | 0.0 | 3.2 | 0.00 | 0.00 | 0.00 | 89 | 1013.5 |
| 20260906030002 | 23 | 16 | 0.0 | 3.2 | 0.00 | 0.00 | 0.00 | 89 | 1013.5 |
| 20260906025502 | 23 | 15 | 3.2 | 3.2 | 0.00 | 0.00 | 0.00 | 89 | 1013.5 |
| 20260906025003 | 23 | 15 | 0.0 | 3.2 | 0.00 | 0.00 | 0.00 | 88 | 1013.6 |
| 20260906024507 | 23 | 15 | 0.0 | 1.6 | 0.00 | 0.00 | 0.00 | 88 | 1013.7 |
| 20260906024003 | 23 | 15 | 0.0 | 3.2 | 0.00 | 0.00 | 0.00 | 88 | 1013.6 |
| 20260906023503 | 24 | 43 | 0.0 | 4.8 | 0.00 | 0.00 | 0.00 | 88 | 1013.5 |
| 20260906023002 | 24 | 17 | 1.6 | 4.8 | 0.00 | 0.00 | 0.00 | 88 | 1013.3 |
| 20260906022503 | 24 | 15 | 3.2 | 3.2 | 0.00 | 0.00 | 0.00 | 88 | 1013.2 |
| 20260906022005 | 24 | 360 | 1.6 | 3.2 | 0.00 | 0.00 | 0.00 | 88 | 1013.2 |
| 20260906021502 | 24 | 360 | 1.6 | 3.2 | 0.00 | 0.00 | 0.00 | 88 | 1013.2 |
| 20260906021003 | 24 | 244 | 0.0 | 0.0 | 0.00 | 0.00 | 0.00 | 87 | 1013.2 |
| 20260906020506 | 24 | 244 | 0.0 | 0.0 | 0.00 | 0.00 | 0.00 | 87 | 1013.2 |
| 20260906020005 | 24 | 244 | 0.0 | 0.0 | 0.00 | 0.00 | 0.00 | 87 | 1013.1 |
| 20260906015504 | 24 | 244 | 0.0 | 0.0 | 0.00 | 0.00 | 0.00 | 87 | 1012.8 |
| 20260906015003 | 24 | 244 | 0.0 | 0.0 | 0.00 | 0.00 | 0.00 | 86 | 1012.9 |
| 20260906014508 | 24 | 244 | 0.0 | 0.0 | 0.00 | 0.00 | 0.00 | 85 | 1012.7 |
| 20260906014003 | 25 | 244 | 0.0 | 0.0 | 0.00 | 0.00 | 0.00 | 85 | 1012.6 |
| 20260906013502 | 25 | 244 | 0.0 | 0.0 | 0.00 | 0.00 | 0.00 | 85 | 1012.6 |
| 20260906013008 | 25 | 244 | 0.0 | 0.0 | 0.00 | 0.00 | 0.00 | 84 | 1012.5 |
| 20260906012503 | 25 | 244 | 0.0 | 0.0 | 0.00 | 0.00 | 0.00 | 84 | 1012.5 |
| 20260906012005 | 25 | 244 | 0.0 | 0.0 | 0.00 | 0.00 | 0.00 | 83 | 1012.5 |
| 20260906011503 | 25 | 244 | 0.0 | 0.0 | 0.00 | 0.00 | 0.00 | 83 | 1012.2 |
| 20260906011002 | 25 | 244 | 0.0 | 3.2 | 0.00 | 0.00 | 0.00 | 82 | 1012.2 |
| 20260906010507 | 25 | 244 | 0.0 | 3.2 | 0.00 | 0.00 | 0.00 | 82 | 1012.1 |
| 20260906010003 | 26 | 244 | 0.0 | 3.2 | 0.00 | 0.00 | 0.00 | 81 | 1012.1 |
| 20260906005501 | 26 | 244 | 0.0 | 3.2 | 0.00 | 0.00 | 0.00 | 80 | 1012.1 |
| 20260906005003 | 26 | 244 | 0.0 | 4.8 | 0.00 | 0.00 | 0.00 | 79 | 1012.1 |
| 20260906004504 | 26 | 244 | 1.6 | 4.8 | 0.00 | 0.00 | 0.00 | 79 | 1011.9 |
| 20260906004005 | 27 | 266 | 1.6 | 4.8 | 0.00 | 0.00 | 0.00 | 78 | 1011.8 |
| 20260906003505 | 27 | 275 | 3.2 | 4.8 | 0.00 | 0.00 | 0.00 | 77 | 1011.9 |
| 20260906003005 | 27 | 284 | 0.0 | 4.8 | 0.00 | 0.00 | 0.00 | 77 | 1011.9 |
| 20260906002501 | 27 | 284 | 1.6 | 4.8 | 0.00 | 0.00 | 0.00 | 77 | 1012.1 |
| 20260906002003 | 27 | 319 | 1.6 | 6.4 | 0.00 | 0.00 | 0.00 | 76 | 1012.1 |
| 20260906001503 | 27 | 286 | 3.2 | 12.9 | 0.00 | 0.00 | 0.00 | 76 | 1012.1 |
| 20260906001004 | 27 | 279 | 3.2 | 12.9 | 0.00 | 0.00 | 0.00 | 76 | 1012.1 |
| 20260906000503 | 27 | 198 | 4.8 | 11.3 | 0.00 | 0.00 | 0.00 | 75 | 1012.0 |
| 20260906000007 | 27 | 287 | 4.8 | 11.3 | 0.00 | 0.00 | 0.00 | 75 | 1012.1 |
| 20260905235504 | 28 | 256 | 4.8 | 6.4 | 0.00 | 0.00 | 0.00 | 75 | 1012.0 |
| 20260905235002 | 28 | 244 | 1.6 | 6.4 | 0.00 | 0.00 | 0.00 | 74 | 1012.2 |
| 20260905234507 | 28 | 281 | 3.2 | 12.9 | 0.00 | 0.00 | 0.00 | 73 | 1012.2 |
| 20260905234007 | 28 | 281 | 4.8 | 12.9 | 0.00 | 0.00 | 0.00 | 73 | 1012.4 |
| 20260905233502 | 28 | 260 | 6.4 | 12.9 | 0.00 | 0.00 | 0.00 | 73 | 1012.4 |
| 20260905233021 | 28 | 271 | 8.0 | 14.5 | 0.00 | 0.00 | 0.00 | 73 | 1012.4 |
| 20260905232505 | 28 | 258 | 8.0 | 14.5 | 0.00 | 0.00 | 0.00 | 73 | 1012.3 |
| 20260905232008 | 28 | 239 | 6.4 | 11.3 | 0.00 | 0.00 | 0.00 | 73 | 1012.3 |
| 20260905231503 | 28 | 233 | 4.8 | 16.1 | 0.00 | 0.00 | 0.00 | 73 | 1012.3 |
| 20260905231004 | 28 | 235 | 4.8 | 16.1 | 0.00 | 0.00 | 0.00 | 74 | 1012.3 |
| 20260905230502 | 28 | 238 | 9.7 | 16.1 | 0.00 | 0.00 | 0.00 | 74 | 1012.3 |
| 20260905230004 | 29 | 257 | 6.4 | 17.7 | 0.00 | 0.00 | 0.00 | 73 | 1012.3 |
| 20260905225504 | 29 | 242 | 9.7 | 17.7 | 0.00 | 0.00 | 0.00 | 72 | 1012.1 |
| 20260905225003 | 30 | 257 | 6.4 | 14.5 | 0.00 | 0.00 | 0.00 | 71 | 1012.2 |
| 20260905224504 | 30 | 279 | 8.0 | 19.3 | 0.00 | 0.00 | 0.00 | 70 | 1012.2 |
| 20260905224005 | 30 | 232 | 9.7 | 19.3 | 0.00 | 0.00 | 0.00 | 69 | 1012.3 |
| 20260905223503 | 31 | 273 | 11.3 | 16.1 | 0.00 | 0.00 | 0.00 | 68 | 1012.1 |
| 20260905223004 | 31 | 226 | 3.2 | 19.3 | 0.00 | 0.00 | 0.00 | 69 | 1012.1 |
| 20260905222506 | 30 | 269 | 9.7 | 19.3 | 0.00 | 0.00 | 0.00 | 69 | 1012.1 |
| 20260905222009 | 30 | 235 | 8.0 | 19.3 | 0.00 | 0.00 | 0.00 | 69 | 1012.2 |
| 20260905221516 | 30 | 223 | 9.7 | 19.3 | 0.00 | 0.00 | 0.00 | 67 | 1012.3 |
| 20260905221003 | 31 | 227 | 4.8 | 20.9 | 0.00 | 0.00 | 0.00 | 68 | 1012.3 |
| 20260905220504 | 31 | 192 | 6.4 | 20.9 | 0.00 | 0.00 | 0.00 | 68 | 1012.2 |
| 20260905220003 | 31 | 273 | 11.3 | 17.7 | 0.00 | 0.00 | 0.00 | 68 | 1012.0 |
| 20260905215503 | 31 | 227 | 8.0 | 16.1 | 0.00 | 0.00 | 0.00 | 67 | 1012.0 |
| 20260905215003 | 31 | 280 | 9.7 | 19.3 | 0.00 | 0.00 | 0.00 | 67 | 1012.1 |
| 20260905214503 | 31 | 275 | 9.7 | 19.3 | 0.00 | 0.00 | 0.00 | 67 | 1012.0 |
| 20260905214006 | 31 | 229 | 11.3 | 19.3 | 0.00 | 0.00 | 0.00 | 65 | 1012.1 |
| 20260905213504 | 32 | 202 | 9.7 | 16.1 | 0.00 | 0.00 | 0.00 | 64 | 1012.1 |
| 20260905213004 | 31 | 254 | 8.0 | 17.7 | 0.00 | 0.00 | 0.00 | 64 | 1012.2 |
| 20260905212504 | 31 | 286 | 8.0 | 17.7 | 0.00 | 0.00 | 0.00 | 65 | 1012.2 |
| 20260905212003 | 31 | 218 | 11.3 | 19.3 | 0.00 | 0.00 | 0.00 | 65 | 1012.3 |
| 20260905211508 | 31 | 265 | 8.0 | 16.1 | 0.00 | 0.00 | 0.00 | 65 | 1012.3 |
| 20260905211003 | 31 | 236 | 6.4 | 14.5 | 0.00 | 0.00 | 0.00 | 66 | 1012.3 |
| 20260905210510 | 31 | 269 | 6.4 | 12.9 | 0.00 | 0.00 | 0.00 | 66 | 1012.4 |
| 20260905210007 | 31 | 259 | 6.4 | 16.1 | 0.00 | 0.00 | 0.00 | 67 | 1012.4 |
| 20260905205511 | 31 | 265 | 8.0 | 16.1 | 0.00 | 0.00 | 0.00 | 66 | 1012.5 |
| 20260905205005 | 31 | 268 | 6.4 | 17.7 | 0.00 | 0.00 | 0.00 | 65 | 1012.5 |
| 20260905204510 | 31 | 250 | 8.0 | 17.7 | 0.00 | 0.00 | 0.00 | 66 | 1012.7 |
| 20260905204003 | 31 | 271 | 8.0 | 14.5 | 0.00 | 0.00 | 0.00 | 64 | 1012.7 |
| 20260905203504 | 31 | 336 | 4.8 | 16.1 | 0.00 | 0.00 | 0.00 | 66 | 1012.7 |
| 20260905203005 | 32 | 251 | 9.7 | 24.1 | 0.00 | 0.00 | 0.00 | 64 | 1012.8 |
| 20260905202503 | 32 | 200 | 6.4 | 24.1 | 0.00 | 0.00 | 0.00 | 65 | 1012.7 |
| 20260905202009 | 32 | 194 | 11.3 | 24.1 | 0.00 | 0.00 | 0.00 | 64 | 1012.9 |
| 20260905201509 | 32 | 267 | 8.0 | 19.3 | 0.00 | 0.00 | 0.00 | 64 | 1012.9 |
| 20260905201008 | 32 | 306 | 6.4 | 19.3 | 0.00 | 0.00 | 0.00 | 66 | 1012.9 |
| 20260905200507 | 31 | 237 | 9.7 | 17.7 | 0.00 | 0.00 | 0.00 | 65 | 1012.9 |
| 20260905200021 | 31 | 244 | 12.9 | 22.5 | 0.00 | 0.00 | 0.00 | 65 | 1013.0 |
| 20260905195508 | 31 | 234 | 12.9 | 22.5 | 0.00 | 0.00 | 0.00 | 65 | 1013.0 |
| 20260905195005 | 32 | 245 | 9.7 | 19.3 | 0.00 | 0.00 | 0.00 | 65 | 1012.9 |
| 20260905194516 | 31 | 248 | 8.0 | 20.9 | 0.00 | 0.00 | 0.00 | 64 | 1013.0 |
| 20260905194005 | 32 | 229 | 11.3 | 20.9 | 0.00 | 0.00 | 0.00 | 63 | 1013.1 |
| 20260905193511 | 32 | 203 | 8.0 | 16.1 | 0.00 | 0.00 | 0.00 | 64 | 1013.1 |
| 20260905193025 | 32 | 204 | 8.0 | 17.7 | 0.00 | 0.00 | 0.00 | 65 | 1013.1 |
| 20260905192508 | 32 | 256 | 9.7 | 17.7 | 0.00 | 0.00 | 0.00 | 65 | 1013.1 |
| 20260905192005 | 32 | 252 | 6.4 | 14.5 | 0.00 | 0.00 | 0.00 | 65 | 1013.1 |
| 20260905191510 | 32 | 265 | 8.0 | 14.5 | 0.00 | 0.00 | 0.00 | 63 | 1013.1 |
| 20260905191004 | 32 | 219 | 4.8 | 16.1 | 0.00 | 0.00 | 0.00 | 63 | 1013.2 |
| 20260905190507 | 32 | 198 | 8.0 | 14.5 | 0.00 | 0.00 | 0.00 | 64 | 1013.3 |
| 20260905190014 | 32 | 344 | 6.4 | 16.1 | 0.00 | 0.00 | 0.00 | 65 | 1013.4 |
| 20260905185507 | 31 | 161 | 8.0 | 19.3 | 0.00 | 0.00 | 0.00 | 64 | 1013.6 |
| 20260905185010 | 31 | 242 | 6.4 | 19.3 | 0.00 | 0.00 | 0.00 | 66 | 1013.7 |
| 20260905184517 | 31 | 244 | 11.3 | 17.7 | 0.00 | 0.00 | 0.00 | 64 | 1013.7 |
| 20260905184012 | 31 | 179 | 6.4 | 16.1 | 0.00 | 0.00 | 0.00 | 66 | 1013.7 |
| 20260905183508 | 31 | 242 | 9.7 | 19.3 | 0.00 | 0.00 | 0.00 | 65 | 1013.7 |
| 20260905183029 | 31 | 232 | 6.4 | 19.3 | 0.00 | 0.00 | 0.00 | 66 | 1013.9 |
| 20260905182509 | 31 | 230 | 9.7 | 16.1 | 0.00 | 0.00 | 0.00 | 67 | 1014.0 |
| 20260905182006 | 30 | 266 | 4.8 | 19.3 | 0.00 | 0.00 | 0.00 | 69 | 1014.1 |
| 20260905181526 | 30 | 295 | 11.3 | 19.3 | 0.00 | 0.00 | 0.00 | 69 | 1014.3 |
| 20260905181005 | 30 | 220 | 9.7 | 20.9 | 0.00 | 0.00 | 0.00 | 69 | 1014.4 |
| 20260905180505 | 30 | 222 | 14.5 | 20.9 | 0.00 | 0.00 | 0.00 | 70 | 1014.6 |
| 20260905180009 | 30 | 222 | 14.5 | 20.9 | 0.00 | 0.00 | 0.00 | 70 | 1014.6 |
| 20260905175505 | 30 | 297 | 8.0 | 27.4 | 0.00 | 0.00 | 0.00 | 71 | 1014.7 |
| 20260905175009 | 29 | 306 | 12.9 | 27.4 | 0.00 | 0.00 | 0.00 | 72 | 1014.6 |
| 20260905174528 | 28 | 320 | 9.7 | 20.9 | 0.00 | 0.00 | 0.00 | 74 | 1014.7 |
| 20260905174009 | 28 | 171 | 14.5 | 20.9 | 0.00 | 0.00 | 0.00 | 74 | 1014.8 |
| 20260905173513 | 28 | 244 | 9.7 | 20.9 | 0.00 | 0.00 | 0.00 | 74 | 1014.9 |
| 20260905173017 | 28 | 215 | 6.4 | 17.7 | 0.00 | 0.00 | 0.00 | 75 | 1014.8 |
| 20260905172506 | 28 | 229 | 11.3 | 20.9 | 0.00 | 0.00 | 0.00 | 75 | 1014.9 |
| 20260905172015 | 28 | 279 | 11.3 | 25.7 | 0.00 | 0.00 | 0.00 | 74 | 1015.0 |
| 20260905171514 | 28 | 232 | 12.9 | 25.7 | 0.00 | 0.00 | 0.00 | 73 | 1015.0 |
| 20260905171017 | 28 | 210 | 16.1 | 25.7 | 0.00 | 0.00 | 0.00 | 72 | 1015.0 |
| 20260905170510 | 29 | 196 | 8.0 | 24.1 | 0.00 | 0.00 | 0.00 | 71 | 1015.0 |
| 20260905170012 | 30 | 213 | 14.5 | 29.0 | 0.00 | 0.00 | 0.00 | 71 | 1015.2 |
| 20260905165506 | 30 | 265 | 19.3 | 29.0 | 0.00 | 0.00 | 0.00 | 71 | 1015.2 |
| 20260905165004 | 30 | 267 | 8.0 | 22.5 | 0.00 | 0.00 | 0.00 | 74 | 1015.1 |
| 20260905164513 | 30 | 248 | 14.5 | 22.5 | 0.00 | 0.00 | 0.00 | 71 | 1015.1 |
| 20260905164008 | 30 | 211 | 14.5 | 22.5 | 0.00 | 0.00 | 0.00 | 70 | 1015.1 |
| 20260905163507 | 30 | 229 | 11.3 | 24.1 | 0.00 | 0.00 | 0.00 | 70 | 1015.1 |
| 20260905163018 | 30 | 218 | 16.1 | 24.1 | 0.00 | 0.00 | 0.00 | 68 | 1015.3 |
| 20260905162513 | 31 | 238 | 12.9 | 19.3 | 0.00 | 0.00 | 0.00 | 69 | 1015.3 |
| 20260905162009 | 31 | 187 | 9.7 | 19.3 | 0.00 | 0.00 | 0.00 | 70 | 1015.2 |
| 20260905161527 | 30 | 227 | 9.7 | 19.3 | 0.00 | 0.00 | 0.00 | 70 | 1015.5 |
| 20260905161011 | 30 | 228 | 9.7 | 16.1 | 0.00 | 0.00 | 0.00 | 68 | 1015.4 |
| 20260905160506 | 30 | 269 | 9.7 | 14.5 | 0.00 | 0.00 | 0.00 | 69 | 1015.5 |
| 20260905160043 | 30 | 243 | 6.4 | 14.5 | 0.00 | 0.00 | 0.00 | 69 | 1015.5 |
| 20260905155509 | 30 | 235 | 4.8 | 6.4 | 0.00 | 0.00 | 0.00 | 66 | 1015.4 |
| 20260905155016 | 30 | 290 | 4.8 | 6.4 | 0.00 | 0.00 | 0.00 | 67 | 1015.3 |
| 20260905154526 | 30 | 162 | 0.0 | 4.8 | 0.00 | 0.00 | 0.00 | 67 | 1015.4 |
| 20260905154009 | 30 | 282 | 3.2 | 6.4 | 0.00 | 0.00 | 0.00 | 68 | 1015.2 |
| 20260905153506 | 30 | 190 | 3.2 | 6.4 | 0.00 | 0.00 | 0.00 | 69 | 1015.2 |
| 20260905153015 | 30 | 289 | 1.6 | 9.7 | 0.00 | 0.00 | 0.00 | 69 | 1015.1 |
| 20260905152508 | 30 | 284 | 4.8 | 9.7 | 0.00 | 0.00 | 0.00 | 70 | 1015.0 |
| 20260905152012 | 30 | 200 | 1.6 | 9.7 | 0.00 | 0.00 | 0.00 | 70 | 1015.0 |
| 20260905151521 | 30 | 285 | 4.8 | 9.7 | 0.00 | 0.00 | 0.00 | 70 | 1015.0 |
| 20260905151012 | 30 | 232 | 4.8 | 6.4 | 0.00 | 0.00 | 0.00 | 69 | 1015.0 |
| 20260905150512 | 30 | 296 | 3.2 | 4.8 | 0.00 | 0.00 | 0.00 | 71 | 1015.0 |
| 20260905150024 | 29 | 47 | 0.0 | 4.8 | 0.00 | 0.00 | 0.00 | 70 | 1015.0 |
| 20260905145516 | 29 | 47 | 1.6 | 4.8 | 0.00 | 0.00 | 0.00 | 71 | 1015.2 |
| 20260905145014 | 29 | 47 | 3.2 | 4.8 | 0.00 | 0.00 | 0.00 | 73 | 1015.2 |
| 20260905144537 | 28 | 47 | 0.0 | 6.4 | 0.00 | 0.00 | 0.00 | 73 | 1015.1 |
| 20260905144019 | 28 | 346 | 3.2 | 8.0 | 0.00 | 0.00 | 0.00 | 73 | 1015.0 |
| 20260905143511 | 28 | 38 | 3.2 | 8.0 | 0.00 | 0.00 | 0.00 | 73 | 1014.9 |
| 20260905143037 | 28 | 67 | 3.2 | 11.3 | 0.00 | 0.00 | 0.00 | 73 | 1015.0 |
| 20260905142510 | 28 | 28 | 4.8 | 11.3 | 0.00 | 0.00 | 0.00 | 72 | 1015.0 |
| 20260905142010 | 28 | 46 | 1.6 | 11.3 | 0.00 | 0.00 | 0.00 | 73 | 1014.9 |
| 20260905141528 | 28 | 336 | 4.8 | 14.5 | 0.00 | 0.00 | 0.00 | 73 | 1015.0 |
| 20260905141014 | 28 | 63 | 8.0 | 16.1 | 0.00 | 0.00 | 0.00 | 73 | 1014.9 |
| 20260905140510 | 28 | 65 | 8.0 | 14.5 | 0.00 | 0.00 | 0.00 | 74 | 1015.0 |
| 20260905140023 | 27 | 17 | 6.4 | 11.3 | 0.00 | 0.00 | 0.00 | 78 | 1015.1 |
| 20260905135512 | 27 | 40 | 4.8 | 8.0 | 0.00 | 0.00 | 0.00 | 78 | 1015.1 |